Home   Weather   Fargo   Past weeks

Flag for USA Past Weather in Fargo, North Dakota, USA — Yesterday and Last 2 Weeks

Now
60 °F

Clear.


Feels Like: 60 °F
Forecast: 56 / 84 °F
Wind: 6 mph from Southwest

Location: Hector International Airport

Current Time: Aug 19, 2017 at 4:31:24 am

Latest Report: Aug 19, 2017 at 3:53 am


Visibility: 10 mi

Pressure: 29.86 "Hg

Humidity: 93%

Dew Point: 58 °F

Location of FargoLocation

Past Weather in Fargo — Graph

°F

Fargo Temperature Yesterday

Maximum temperature yesterday: 79 °F (at 4:53 pm)
Minimum temperature yesterday: 62 °F (at 12:53 am)
Average temperature yesterday: 69 °F

High & Low Weather Summary for the Past Weeks

 TemperatureHumidityPressure
High84 °F (Aug 8, 2:53 pm)100% (Aug 10, 12:53 am)30.16 "Hg (Aug 10, 12:53 am)
Low48 °F (Aug 4, 5:53 am)30% (Aug 4, 4:53 pm)29.76 "Hg (Aug 17, 2:53 am)
Average67 °F77%29.96 "Hg
* Reported Aug 4 2:53 am — Aug 19 2:53 am, Fargo. Weather by CustomWeather, © 2017

Note: Actual official high and low records may vary slightly from our data, if they occured in-between our weather recording intervals... More about our weather records

Advertising

Fargo Weather History for the Previous 24 Hours

Scroll right to see more
 ConditionsComfort  
Time TempWeatherWind HumidityBarometerVisibility
2:53 am
Sat, Aug 19
62 °FClear.7 mph90%29.86 "Hg10 mi
1:53 am61 °FClear.6 mph90%29.87 "Hg10 mi
12:53 am65 °FClear.7 mph87%29.87 "Hg10 mi
11:53 pm
Fri, Aug 18
64 °FClear.6 mph90%29.88 "Hg10 mi
10:53 pm64 °FClear.6 mph87%29.88 "Hg10 mi
9:53 pm65 °FClear.6 mph85%29.88 "Hg10 mi
8:53 pm67 °FClear.7 mph79%29.87 "Hg10 mi
7:53 pm71 °FBroken clouds.8 mph66%29.87 "Hg10 mi
6:53 pm78 °FScattered clouds.5 mph58%29.86 "Hg10 mi
5:53 pm79 °FSunny.9 mph54%29.85 "Hg10 mi
4:53 pm79 °FPassing clouds.10 mph56%29.85 "Hg10 mi
3:53 pm78 °FSunny.12 mph62%29.85 "Hg10 mi
2:53 pm77 °FSunny.10 mph64%29.84 "Hg10 mi
1:53 pm76 °FPassing clouds.13 mph64%29.86 "Hg10 mi
12:53 pm76 °FSunny.7 mph60%29.87 "Hg10 mi
11:53 am71 °FPassing clouds.No wind71%29.88 "Hg10 mi
10:53 am71 °FSunny.No wind71%29.87 "Hg10 mi
9:53 am67 °FSunny.5 mph79%29.87 "Hg10 mi
8:53 am66 °FPassing clouds.6 mph81%29.86 "Hg10 mi
7:53 am65 °FPartly sunny.5 mph87%29.83 "Hg10 mi
6:53 am62 °FSunny.5 mph90%29.82 "Hg10 mi
5:53 am62 °FClear.5 mph90%29.83 "Hg10 mi
4:53 am66 °FPassing clouds.8 mph81%29.85 "Hg10 mi
Weather by CustomWeather, © 2017

See weather overviewHow to use our weather pages